Leadville, CO

10:35 PM MDT on June 24, 2018 (GMT -0600)
Lake County

Weather History for KLXV - August, 2017

Change the Weather History Date:

Saturday, August 12, 2017

  Actual Average Record
Temperature  
Mean Temperature 52 °F -  
Max Temperature 68 °F 68 °F 77 °F (1996)
Min Temperature 36 °F 39 °F 31 °F (1976)
Degree Days  
Heating Degree Days 13 12  
Month to date heating degree days 150 134  
Since 1 June heating degree days 777 950  
Since 1 July heating degree days 410 470  
Cooling Degree Days 0 0  
Month to date cooling degree days 0 0  
Year to date cooling degree days 0 0  
Since 1 June cooling degree days 0 0  
Growing Degree Days 2 (Base 50)    
Moisture  
Dew Point 36 °F    
Average Humidity 56    
Maximum Humidity 85    
Minimum Humidity 26    
Precipitation  
Precipitation 0.01 in 0.08 in 0.36 in (1990)
Month to date precipitation 1.16 0.83  
Year to date precipitation 12.77 7.75  
Sea Level Pressure  
Sea Level Pressure 30.06 in    
Wind  
Wind Speed 6 mph (NNE)    
Max Wind Speed 30 mph    
Max Gust Speed 40 mph    
Visibility 10 miles    
Events Rain , Thunderstorm    
T = Trace of Precipitation, MM = Missing Value Source: NWS Daily Summary

Daily Weather History Graph

Daily Weather History Graph

Search for Another Location

Airport or City:

Astronomy

Aug. 12, 2017 Rise Set
Actual Time 6:15 AM MDT 8:03 PM MDT
Civil Twilight 5:46 AM MDT 8:32 PM MDT
Nautical Twilight 5:11 AM MDT 9:07 PM MDT
Astronomical Twilight 4:34 AM MDT 9:44 PM MDT
Moon 11:05 PM MDT (8/12) 11:11 AM MDT (8/12)
Length of Visible Light 14h 45m
Length of Day
13h 48m
Waning Gibbous, 75% of the Moon is Illuminated
Aug 12
Waning Gibbous
Aug 14
Last Quarter
Aug 21
New
Aug 29
First Quarter
Sep 6
Full

Hourly Weather History & Observations

Time (MDT) Temp. Windchill Dew Point Humidity Pressure Visibility Wind Dir Wind Speed Gust Speed Precip Events Conditions
12:53 AM 41.0 °F 37.1 °F 34.0 °F 76% 30.00 in 10.0 mi East 5.8 mph - N/A   Partly Cloudy
1:53 AM 41.0 °F 39.0 °F 35.1 °F 79% 29.98 in 10.0 mi WSW 3.5 mph - N/A   Clear
2:53 AM 42.1 °F 40.2 °F 35.1 °F 76% 30.01 in 10.0 mi East 3.5 mph - N/A   Scattered Clouds
3:53 AM 41.0 °F - 35.1 °F 79% 30.01 in 10.0 mi Calm Calm - N/A   Clear
4:53 AM 39.9 °F - 35.1 °F 83% 30.02 in 10.0 mi Calm Calm - N/A   Mostly Cloudy
5:53 AM 37.9 °F 34.4 °F 34.0 °F 86% 30.10 in 10.0 mi NNE 4.6 mph - N/A   Overcast
6:53 AM 37.0 °F 34.5 °F 34.0 °F 89% 30.09 in 10.0 mi ENE 3.5 mph - N/A   Clear
7:53 AM 46.0 °F 44.8 °F 36.0 °F 68% 30.05 in 10.0 mi NNE 3.5 mph - N/A   Scattered Clouds
8:53 AM 55.0 °F - 37.9 °F 53% 30.03 in 10.0 mi Calm Calm - N/A   Clear
9:53 AM 59.0 °F - 34.0 °F 39% 30.01 in 10.0 mi North 3.5 mph - N/A   Clear
10:53 AM 61.0 °F - 33.1 °F 35% 30.00 in 10.0 mi West 9.2 mph - N/A   Clear
11:53 AM 63.0 °F - 34.0 °F 34% 29.98 in 10.0 mi WSW 9.2 mph - N/A   Partly Cloudy
12:53 PM 64.9 °F - 32.0 °F 29% 29.97 in 10.0 mi NNW 8.1 mph - N/A   Clear
1:53 PM 66.0 °F - 30.0 °F 26% 29.93 in 10.0 mi WSW 6.9 mph 18.4 mph N/A   Partly Cloudy
2:53 PM 66.0 °F - 33.1 °F 29% 29.92 in 10.0 mi NNW 15.0 mph 18.4 mph N/A   Clear
3:51 PM 60.8 °F - 35.6 °F 39% 30.41 in 10.0 mi North 29.9 mph 40.3 mph N/A   Scattered Clouds
3:53 PM 59.0 °F - 35.1 °F 41% 29.97 in 10.0 mi North 25.3 mph 40.3 mph N/A   Scattered Clouds
4:00 PM 57.0 °F - 35.1 °F 44% 30.41 in 10.0 mi North 20.7 mph 38.0 mph N/A   Mostly Cloudy
4:15 PM 55.9 °F - 37.0 °F 49% 30.43 in 10.0 mi North 21.9 mph 33.4 mph N/A Thunderstorm Mostly Cloudy
4:30 PM 55.0 °F - 37.9 °F 53% 30.45 in 10.0 mi North 16.1 mph 27.6 mph N/A   Overcast
4:53 PM 52.0 °F - 39.9 °F 63% 30.10 in 8.0 mi NNW 11.5 mph 18.4 mph 0.00 in Rain Light Rain
5:53 PM 52.0 °F - 37.9 °F 59% 30.08 in 10.0 mi Variable 4.6 mph - 0.01 in   Overcast
6:53 PM 54.0 °F - 37.0 °F 53% 30.04 in 10.0 mi NE 4.6 mph - N/A   Clear
7:53 PM 50.0 °F - 39.0 °F 66% 30.00 in 10.0 mi Calm Calm - N/A   Clear
8:53 PM 50.0 °F - 37.9 °F 63% 29.95 in 10.0 mi NE 6.9 mph - N/A   Clear
9:53 PM 48.0 °F - 37.9 °F 68% 29.96 in 10.0 mi ENE 4.6 mph - N/A   Partly Cloudy
10:53 PM 46.0 °F 43.9 °F 37.0 °F 71% 29.95 in 10.0 mi ENE 4.6 mph - N/A   Clear
11:53 PM 46.0 °F 43.9 °F 37.0 °F 71% 29.93 in 10.0 mi ENE 4.6 mph - N/A   Clear